Regional Weather Roundup
Issued by NWS

Home | Current Version | Previous Version | Text Only | Print | Product List | Glossary Off
Versions: 1 2 3 4 5 6 7 8 9 10 11 12 13 14 15 16 17 18 19 20 21 22 23 24 25 26 27 28 29 30 31 32 33 34 35 36 37 38 39 40 41 42 43 44 45 46 47 48 49 50

000
ASUS43 KLOT 051358
RWRIL

ILLINOIS REGIONAL WEATHER ROUNDUP
NATIONAL WEATHER SERVICE CHICAGO/ROMEOVILLE IL
800 AM CST MON DEC 05 2016

NOTE: "FAIR" INDICATES FEW OR NO CLOUDS BELOW 12,000 FEET WITH NO
SIGNIFICANT WEATHER AND/OR OBSTRUCTIONS TO VISIBILITY.

* THESE STATIONS ARE NOT UNDER NWS QUALITY CONTROL. THEY ALSO MAY NOT
  REPORT WEATHER SUCH AS PRECIPITATION OR FOG.

ILZ001-002-007-009-015-016-024-051500-
NORTHWEST ILLINOIS

CITY           SKY/WX    TMP DP  RH WIND       PRES   REMARKS
MOLINE         NOT AVBL
STERLING*      FOG       32  30  93 S3        30.00S VSB 3/4
$$

ILZ003-004-008-010-011-017-018-051500-
NORTH CENTRAL ILLINOIS

CITY           SKY/WX    TMP DP  RH WIND       PRES   REMARKS
ROCKFORD       CLOUDY    34  32  93 S8        30.00S FOG     WCI  27
$$

ILZ005-006-012>014-019>023-051500-
NORTHEAST ILLINOIS

CITY           SKY/WX    TMP DP  RH WIND       PRES   REMARKS
CHICAGO-OHARE  CLOUDY    32  30  92 SW6       30.01R WCI  26
CHICAGO-MIDWAY NOT AVBL
AURORA         NOT AVBL
WAUKEGAN       NOT AVBL
DUPAGE AIRPORT CLOUDY    32  30  93 SW7       30.00S FOG     WCI  26
WHEELING       NOT AVBL
NORTHERLY ISL    N/A     33  30  89 SW8         N/A  WCI  26
$$

LMZ740>746-051500-
SOUTHERN LAKE MICHIGAN

STATION/POSITION SKY/WX   TEMP    WIND        PRES    VSBY  WAVE
                          AIR SEA DIR/SP/G                  HT/PER
                          (F)     (DEG/KT/KT) (MB)    (MI)  (FT/S)
HARRISON CRIB              35     210/ 12/ 13   N/A
BURNHAM HARBOR             33     190/  4/ 11   N/A
CALUMET HARBOR             32     230/  6/  9 1016.1F
BURNS HARBOR               34     210/  8/ 12 1017.6
$$

ILZ025>027-034>036-040-047-049-050-058-095>099-051500-
WEST-CENTRAL ILLINOIS

CITY           SKY/WX    TMP DP  RH WIND       PRES   REMARKS
$$

ILZ028>032-037-038-041>044-048-051>054-059>061-051500-
CENTRAL ILLINOIS

CITY           SKY/WX    TMP DP  RH WIND       PRES   REMARKS
BLOOMINGTON    FOG       30  30 100 S12       30.04S VSB 3/4 WCI  21
PEORIA         NOT AVBL
SPRINGFIELD    CLOUDY    36  34  93 S6        30.05R FOG     WCI  31
TAYLORVILLE    NOT AVBL
$$

ILZ033-039-045-046-055>057-062-063-051500-
EAST-CENTRAL ILLINOIS

CITY           SKY/WX    TMP DP  RH WIND       PRES   REMARKS
MATTOON        CLOUDY    34  28  80 S8        30.07S WCI  27
$$

ILZ079-100>102-051500-
SOUTHWEST ILLINOIS

CITY           SKY/WX    TMP DP  RH WIND       PRES   REMARKS
ALTON          CLOUDY    36  34  93 SE3       30.06R
CAHOKIA*       CLOUDY    39  34  82 SE3       30.06R
$$

ILZ064>066-069>071-074>076-080>082-084>086-088>090-092>094-051500-
SOUTH-CENTRAL ILLINOIS

CITY           SKY/WX    TMP DP  RH WIND       PRES   REMARKS
CARBONDALE     MOCLDY    36  34  92 NE6       30.07S WCI  31
MARION         PTCLDY    34  34 100 NE6       30.09R WCI  29
$$

ILZ067-068-072-073-078-083-087-091-051500-
SOUTHEAST ILLINOIS

CITY           SKY/WX    TMP DP  RH WIND       PRES   REMARKS
$$

ABBREVIATIONS USED IN REMARKS
   TC - TEMPERATURE IN CELSIUS
  WCI - WIND CHILL INDEX
   HX - HEAT INDEX
  VSB - VISIBILITY
$$





USA.gov is the U.S. government's official web portal to all federal, state and local government web resources and services.